Regional Weather Roundup
Issued by NWS

Home | Current Version | Previous Version | Text Only | Print | Product List | Glossary On
Versions: 1 2 3 4 5 6 7 8 9 10 11 12 13 14 15 16 17 18 19 20 21 22 23 24 25 26 27 28 29 30 31 32 33 34 35 36 37 38 39 40 41 42 43 44 45 46 47 48 49
000
ASCA42 TJSJ 281810
RWRPR
PUERTO RICO/U.S. VIRGIN ISLANDS HOURLY WEATHER ROUNDUP
NATIONAL WEATHER SERVICE SAN JUAN PR
200 PM AST THU MAY 28 2015

PRZ001-004-281900-
PUERTO RICO

CITY           SKY/WX    TMP DP  RH WIND       PRES   REMARKS
SAN JUAN LMM   MOSUNNY   88  75  66 NE16      29.94F HX  97
AGUADILLA      MOSUNNY   86  70  58 N8        29.97F HX  90
CEIBA          SUNNY     90  72  55 S12       29.97F HX  96
$$

PRZ006-007-281900-
U.S. VIRGIN ISLANDS

CITY           SKY/WX    TMP DP  RH WIND       PRES   REMARKS
CHARLOTTE AMA  CLOUDY    86  73  66 SE8       29.96F HX  93
CHRISTIANSTED  MOSUNNY   86  72  62 SE9       29.97F HX  92
$$

HOURLY WEATHER ROUNDUP FOR THE NEWS MEDIA

CITY           SKY/WX    TMP DP  RH WIND       PRES   REMARKS
ORLANDO        PTSUNNY   86  61  42 E10       30.13F
NEW YORK       PTSUNNY   75  62  64 S10       30.17S
NEWARK         PTSUNNY   85  68  56 VRB6      30.13F
CHICAGO        PTSUNNY   81  56  42 SE10G18   30.17F
HARTFORD       CLOUDY    72  63  73 SW16      30.14F
BOSTON         MOSUNNY   85  66  53 SW17G25   30.07F
DALLAS         PTSUNNY   86  68  54 S10       30.06F
PHILADELPHIA   PTSUNNY   85  66  53 S7        30.14F
LOS ANGELES    CLOUDY    62  56  80 W6        30.02R
WASHINGTON DC  PTSUNNY   86  63  45 W8        30.18F



USA.gov is the U.S. government's official web portal to all federal, state and local government web resources and services.